| time (UTC) | temp F | wind direction | speed MPH | gust MPH | rain 1hr in | rain 24hr in | rain mn in | humidity % | barometer mb |
| 20260905050056 | 87 | 185 | 2.0 | 4.0 | 0.00 | 0.00 | 0.00 | 66 | 1010.1 |
| 20260905044555 | 88 | 201 | 2.0 | 6.0 | 0.00 | 0.00 | 0.00 | 65 | 1010.0 |
| 20260905043114 | 88 | 98 | 1.0 | 6.0 | 0.00 | 0.00 | 0.00 | 64 | 1010.0 |
| 20260905041555 | 89 | 195 | 2.0 | 5.0 | 0.00 | 0.00 | 0.00 | 63 | 1009.9 |
| 20260905040115 | 89 | 200 | 1.0 | 6.0 | 0.00 | 0.00 | 0.00 | 61 | 1010.1 |
| 20260905034557 | 89 | 241 | 1.0 | 7.0 | 0.00 | 0.00 | 0.00 | 59 | 1010.2 |
| 20260905033056 | 89 | 127 | 1.0 | 5.0 | 0.00 | 0.00 | 0.00 | 59 | 1010.1 |
| 20260905031553 | 89 | 100 | 0.0 | 5.0 | 0.00 | 0.00 | 0.00 | 58 | 1009.9 |
| 20260905030052 | 90 | 90 | 1.0 | 5.0 | 0.00 | 0.00 | 0.00 | 57 | 1009.8 |
| 20260905024552 | 90 | 75 | 1.0 | 5.0 | 0.00 | 0.00 | 0.00 | 57 | 1009.7 |
| 20260905023058 | 90 | 114 | 0.0 | 1.0 | 0.00 | 0.00 | 0.00 | 57 | 1009.5 |
| 20260905021552 | 91 | 106 | 0.0 | 2.0 | 0.00 | 0.00 | 0.00 | 56 | 1009.2 |
| 20260905020050 | 91 | 101 | 0.0 | 4.0 | 0.00 | 0.00 | 0.00 | 56 | 1009.0 |
| 20260905014548 | 92 | 126 | 0.0 | 5.0 | 0.00 | 0.00 | 0.00 | 56 | 1008.7 |
| 20260905013056 | 92 | 136 | 2.0 | 5.0 | 0.00 | 0.00 | 0.00 | 55 | 1008.5 |
| 20260905011548 | 93 | 212 | 3.0 | 8.0 | 0.00 | 0.00 | 0.00 | 55 | 1008.4 |
| 20260905010051 | 93 | 151 | 2.0 | 10.0 | 0.00 | 0.00 | 0.00 | 55 | 1008.3 |
| 20260905004545 | 94 | 76 | 1.0 | 11.0 | 0.00 | 0.00 | 0.00 | 54 | 1008.1 |
| 20260905003045 | 95 | 146 | 1.0 | 5.0 | 0.00 | 0.00 | 0.00 | 53 | 1007.9 |
| 20260905001545 | 96 | 116 | 0.0 | 6.0 | 0.00 | 0.00 | 0.00 | 51 | 1007.8 |
| 20260905000044 | 97 | 127 | 2.0 | 9.0 | 0.00 | 0.00 | 0.00 | 50 | 1007.7 |
| 20260904234546 | 98 | 189 | 1.0 | 5.0 | 0.00 | 0.00 | 0.00 | 49 | 1007.7 |
| 20260904233043 | 99 | 165 | 0.0 | 5.0 | 0.00 | 0.00 | 0.00 | 47 | 1007.7 |
| 20260904231542 | 99 | 186 | 1.0 | 5.0 | 0.00 | 0.00 | 0.00 | 47 | 1007.7 |
| 20260904230041 | 99 | 147 | 1.0 | 5.0 | 0.00 | 0.00 | 0.00 | 47 | 1007.8 |
| 20260904224542 | 99 | 134 | 1.0 | 7.0 | 0.00 | 0.00 | 0.00 | 48 | 1007.9 |
| 20260904223037 | 99 | 109 | 1.0 | 6.0 | 0.00 | 0.00 | 0.00 | 46 | 1007.9 |
| 20260904221536 | 99 | 125 | 2.0 | 8.0 | 0.00 | 0.00 | 0.00 | 47 | 1008.0 |
| 20260904220054 | 99 | 115 | 1.0 | 9.0 | 0.00 | 0.00 | 0.00 | 46 | 1008.1 |
| 20260904214537 | 99 | 158 | 2.0 | 7.0 | 0.00 | 0.00 | 0.00 | 48 | 1008.2 |
| 20260904213031 | 98 | 117 | 3.0 | 9.0 | 0.00 | 0.00 | 0.00 | 48 | 1008.3 |
| 20260904211535 | 99 | 147 | 3.0 | 8.0 | 0.00 | 0.00 | 0.00 | 48 | 1008.4 |
| 20260904210039 | 99 | 127 | 1.0 | 8.0 | 0.00 | 0.00 | 0.00 | 48 | 1008.6 |
| 20260904204524 | 99 | 41 | 3.0 | 6.0 | 0.00 | 0.00 | 0.00 | 48 | 1008.7 |
| 20260904203036 | 100 | 227 | 3.0 | 9.0 | 0.00 | 0.00 | 0.00 | 48 | 1009.0 |
| 20260904201516 | 99 | 207 | 1.0 | 7.0 | 0.00 | 0.00 | 0.00 | 50 | 1009.2 |
| 20260904200014 | 99 | 177 | 2.0 | 8.0 | 0.00 | 0.00 | 0.00 | 51 | 1009.4 |
| 20260904194512 | 98 | 227 | 2.0 | 7.0 | 0.00 | 0.00 | 0.00 | 53 | 1009.7 |
| 20260904193009 | 97 | 158 | 2.0 | 9.0 | 0.00 | 0.00 | 0.00 | 53 | 1009.9 |
| 20260904191502 | 96 | 89 | 1.0 | 10.0 | 0.00 | 0.00 | 0.00 | 56 | 1010.0 |
| 20260904190100 | 96 | 66 | 2.0 | 8.0 | 0.00 | 0.00 | 0.00 | 58 | 1010.3 |
| 20260904184559 | 95 | 81 | 0.0 | 8.0 | 0.00 | 0.00 | 0.00 | 59 | 1010.4 |
| 20260904183117 | 95 | 144 | 3.0 | 8.0 | 0.00 | 0.00 | 0.00 | 58 | 1010.6 |
| 20260904181554 | 94 | 97 | 0.0 | 5.0 | 0.00 | 0.00 | 0.00 | 60 | 1010.8 |
| 20260904180113 | 93 | 105 | 2.0 | 7.0 | 0.00 | 0.00 | 0.00 | 61 | 1011.0 |
| 20260904174556 | 92 | 167 | 2.0 | 12.0 | 0.00 | 0.00 | 0.00 | 60 | 1011.2 |
| 20260904173047 | 91 | 184 | 3.0 | 10.0 | 0.00 | 0.00 | 0.00 | 59 | 1011.5 |
| 20260904171552 | 92 | 167 | 3.0 | 7.0 | 0.00 | 0.00 | 0.00 | 61 | 1011.7 |
| 20260904170047 | 90 | 206 | 2.0 | 8.0 | 0.00 | 0.00 | 0.00 | 65 | 1011.8 |
| 20260904164540 | 89 | 243 | 2.0 | 9.0 | 0.00 | 0.00 | 0.00 | 67 | 1011.9 |
| 20260904163036 | 88 | 103 | 2.0 | 9.0 | 0.00 | 0.00 | 0.00 | 69 | 1012.0 |
| 20260904161534 | 88 | 220 | 4.0 | 13.0 | 0.00 | 0.00 | 0.00 | 69 | 1012.0 |
| 20260904160030 | 86 | 247 | 5.0 | 9.0 | 0.00 | 0.00 | 0.00 | 72 | 1011.9 |
| 20260904154528 | 85 | 216 | 3.0 | 9.0 | 0.00 | 0.00 | 0.00 | 75 | 1011.9 |
| 20260904153023 | 84 | 180 | 3.0 | 10.0 | 0.00 | 0.00 | 0.00 | 79 | 1011.8 |
| 20260904151522 | 84 | 236 | 4.0 | 8.0 | 0.00 | 0.00 | 0.00 | 79 | 1011.9 |
| 20260904150030 | 83 | 194 | 1.0 | 9.0 | 0.00 | 0.00 | 0.00 | 83 | 1011.8 |
| 20260904144515 | 82 | 193 | 2.0 | 6.0 | 0.00 | 0.00 | 0.00 | 87 | 1011.8 |
| 20260904143012 | 80 | 123 | 0.0 | 5.0 | 0.00 | 0.00 | 0.00 | 88 | 1011.8 |
| 20260904141512 | 80 | 137 | 1.0 | 5.0 | 0.00 | 0.00 | 0.00 | 89 | 1011.9 |
| 20260904140007 | 79 | 153 | 1.0 | 4.0 | 0.00 | 0.00 | 0.00 | 90 | 1011.8 |
| 20260904134503 | 79 | 114 | 0.0 | 5.0 | 0.00 | 0.00 | 0.00 | 90 | 1011.6 |
| 20260904133006 | 79 | 122 | 0.0 | 3.0 | 0.00 | 0.00 | 0.00 | 90 | 1011.5 |
| 20260904131600 | 79 | 144 | 0.0 | 5.0 | 0.00 | 0.00 | 0.00 | 90 | 1011.4 |
| 20260904130057 | 78 | 131 | 0.0 | 7.0 | 0.00 | 0.00 | 0.00 | 90 | 1011.1 |
| 20260904124604 | 78 | 93 | 1.0 | 5.0 | 0.00 | 0.00 | 0.00 | 90 | 1011.0 |
| 20260904123054 | 78 | 137 | 1.0 | 6.0 | 0.00 | 0.00 | 0.00 | 90 | 1010.9 |
| 20260904121554 | 78 | 100 | 0.0 | 5.0 | 0.00 | 0.00 | 0.00 | 90 | 1010.8 |
| 20260904120059 | 78 | 114 | 0.0 | 4.0 | 0.00 | 0.00 | 0.00 | 90 | 1010.7 |
| 20260904114550 | 78 | 131 | 0.0 | 4.0 | 0.00 | 0.00 | 0.00 | 90 | 1010.6 |
| 20260904113050 | 78 | 105 | 1.0 | 6.0 | 0.00 | 0.00 | 0.00 | 90 | 1010.6 |
| 20260904111549 | 78 | 117 | 0.0 | 4.0 | 0.00 | 0.00 | 0.00 | 90 | 1010.5 |
| 20260904110047 | 78 | 143 | 0.0 | 3.0 | 0.00 | 0.00 | 0.00 | 90 | 1010.6 |
| 20260904104547 | 78 | 118 | 0.0 | 3.0 | 0.00 | 0.00 | 0.00 | 89 | 1010.3 |
| 20260904103048 | 78 | 134 | 0.0 | 4.0 | 0.00 | 0.00 | 0.00 | 89 | 1010.3 |
| 20260904101556 | 78 | 158 | 0.0 | 5.0 | 0.00 | 0.00 | 0.00 | 89 | 1010.3 |
| 20260904100046 | 78 | 154 | 0.0 | 5.0 | 0.00 | 0.00 | 0.00 | 89 | 1010.2 |
| 20260904094550 | 78 | 113 | 0.0 | 2.0 | 0.00 | 0.00 | 0.00 | 89 | 1010.1 |
| 20260904093047 | 78 | 125 | 0.0 | 3.0 | 0.00 | 0.00 | 0.00 | 88 | 1010.2 |
| 20260904091543 | 79 | 123 | 1.0 | 3.0 | 0.00 | 0.00 | 0.00 | 88 | 1010.2 |
| 20260904090045 | 79 | 132 | 0.0 | 3.0 | 0.00 | 0.00 | 0.00 | 87 | 1010.1 |
| 20260904084541 | 79 | 106 | 1.0 | 4.0 | 0.00 | 0.00 | 0.00 | 87 | 1010.2 |
| 20260904083040 | 79 | 133 | 0.0 | 2.0 | 0.00 | 0.00 | 0.00 | 87 | 1010.1 |
| 20260904081539 | 79 | 148 | 0.0 | 1.0 | 0.00 | 0.00 | 0.00 | 87 | 1010.1 |
| 20260904080040 | 79 | 185 | 0.0 | 1.0 | 0.00 | 0.00 | 0.00 | 86 | 1010.0 |
| 20260904074537 | 79 | 152 | 0.0 | 4.0 | 0.00 | 0.00 | 0.00 | 85 | 1010.1 |
| 20260904073040 | 79 | 124 | 1.0 | 4.0 | 0.00 | 0.00 | 0.00 | 85 | 1010.1 |
| 20260904071535 | 79 | 191 | 0.0 | 5.0 | 0.00 | 0.00 | 0.00 | 84 | 1010.2 |
| 20260904070042 | 80 | 180 | 0.0 | 6.0 | 0.00 | 0.00 | 0.00 | 84 | 1010.2 |
| 20260904064540 | 80 | 177 | 0.0 | 4.0 | 0.00 | 0.00 | 0.00 | 83 | 1010.3 |
| 20260904063035 | 80 | 160 | 0.0 | 4.0 | 0.00 | 0.00 | 0.00 | 83 | 1010.4 |
| 20260904061538 | 80 | 243 | 1.0 | 4.0 | 0.00 | 0.00 | 0.00 | 82 | 1010.5 |
| 20260904060051 | 79 | 176 | 1.0 | 3.0 | 0.00 | 0.00 | 0.00 | 81 | 1010.5 |
| 20260904054539 | 80 | 117 | 1.0 | 6.0 | 0.00 | 0.00 | 0.00 | 79 | 1010.5 |
| 20260904053032 | 80 | 189 | 0.0 | 7.0 | 0.00 | 0.00 | 0.00 | 78 | 1010.4 |
| 20260904051525 | 80 | 129 | 2.0 | 5.0 | 0.00 | 0.00 | 0.00 | 77 | 1010.3 |